TIME,DELAY(SENSOR),PRES,T(CTD),SAL,OXYGEN,RAWTEMP,T(OPTODE),TCPHASE,FLUOR,BETA(BETA700),BETA(BETA412),BETA(BETA440),CDOM,C(CSC),ED(ED412.40),ED(ED444.00),ED(ED489.70),ED(ED554.30),LU(LU411.80),LU(LU443.40),LU(LU489.60),LU(LU554.10),COMP,TILTX,TILTX(TILTY),CHECK
1382995686,5812,495.4299926757812500,6.9580001831054690,34.1162986755371100,88.8847198486328100,589.1215209960938000,6.9351229667663570,47.7310218811035160,51,105,85,79,77,15234,2147745819,2147419885,2148010349,2147873974,2147627492,2147070144,2148248146,2147202834,2743,3,13,16599
1382995829,5809,484.4100036621094000,7.2059998512268070,34.1240997314453100,93.3115768432617200,581.3536987304688000,7.1849780082702640,47.1223411560058600,52,103,86,79,76,15235,2147746038,2147424283,2148008000,2147873654,2147624475,2147073462,2148243538,2147201069,1729,4,13,8803
1382995972,5805,474.1799926757812500,7.3719000816345215,34.1186981201171900,98.8933105468750000,575.6383056640625000,7.3684692382812500,46.4303092956543000,50,104,88,78,75,15235,2147742683,2147424822,2148008859,2147873097,2147624694,2147076928,2148247378,2147202724,930,3,13,48897
1382996133,5807,461.2600097656250000,7.6722002029418945,34.1081008911132800,111.8075027465820300,566.4777221679688000,7.6619629859924320,44.9542007446289060,51,104,86,79,75,15234,2147742921,2147423405,2148005622,2147876123,2147623250,2147076836,2148240155,2147200960,2444,3,13,37913
1382996254,5807,449.8900146484375000,7.8203001022338870,34.1027984619140600,120.7795028686523400,561.9628295898438000,7.8063468933105470,44.0082206726074200,51,104,83,80,75,15233,2147742308,2147423204,2148006098,2147871652,2147622363,2147075821,2148238125,2147202934,1224,3,13,28564
1382996367,5805,439.0299987792969000,7.8737001419067380,34.1048011779785160,124.3678970336914000,560.2269287109375000,7.8618111610412600,43.6431388854980500,50,103,82,80,75,15232,2147741248,2147424283,2148008009,2147877120,2147621101,2147080640,2148237531,2147202285,29,4,13,36978
1382996477,5812,428.1099853515625000,8.1256999969482420,34.0980987548828100,131.9049072265625000,552.6431884765625000,8.1038274765014650,42.8271408081054700,50,105,87,80,73,15230,2147740708,2147423579,2148007890,2147873005,2147623524,2147080859,2148235794,2147201298,153,4,13,621
1382996587,5809,417.2500000000000000,8.2420997619628900,34.0998001098632800,137.4687042236328000,548.7775878906250000,8.2270050048828120,42.2707710266113300,50,102,86,80,73,15231,2147738962,2147422500,2148008969,2147873700,2147618642,2147083712,2148239286,2147202322,211,4,13,34109
1382996699,5805,406.5799865722656000,8.3791999816894530,34.1010017395019500,142.3088989257812500,544.4069824218750000,8.3661251068115230,41.7802810668945300,50,102,90,80,73,15233,2147735853,2147424868,2148005394,2147873124,2147616987,2147089014,2148238656,2147202541,2743,4,13,11246
1382996820,5811,395.0700073242187500,8.5055999755859380,34.1021995544433600,145.2848968505859400,540.0576171875000000,8.5044193267822270,41.4558601379394500,50,104,86,80,74,15230,2147734774,2147424402,2148007954,2147874916,2147620580,2147084470,2148232045,2147200502,2765,3,13,43532
1382996941,5805,384.5700073242187500,8.7609996795654300,34.1076011657714840,149.4026947021484400,532.2855224609375000,8.7511672973632810,40.9813613891601560,50,105,85,79,73,15232,2147737261,2147423734,2148008000,2147874102,2147616374,2147085824,2148229632,2147202358,1430,3,13,37398
1382997086,5809,373.4200134277344000,9.1125001907348630,34.1110992431640600,155.7229003906250000,521.1013793945312000,9.1054134368896480,40.2824783325195300,49,106,88,81,72,15230,2147737133,2147423625,2148007049,2147875565,2147618669,2147093924,2148236662,2147201682,764,3,13,46309
1382997240,5810,362.5599975585937500,9.4555997848510740,34.1167984008789060,164.4826965332031200,510.2289123535156000,9.4488897323608400,39.4219818115234400,50,107,90,79,72,15230,2147735707,2147425792,2148009590,2147872338,2147616777,2147094784,2148229312,2147203401,2551,3,13,47196
1382997381,5808,350.9700012207031000,9.7238998413085940,34.1240005493164060,169.4788055419922000,501.8063049316406000,9.7143821716308600,38.9068717956543000,49,107,87,79,72,15229,2147731510,2147425014,2148010121,2147873115,2147612928,2147096155,2148226797,2147203876,1753,3,13,43773
1382997497,5808,339.2999877929687500,10.0872001647949220,34.1278991699218750,173.5625000000000000,489.4059143066406000,10.1043596267700200,38.4015998840332000,49,104,86,79,71,15226,2147730212,2147423442,2148008274,2147874752,2147611584,2147098486,2148226560,2147203748,3205,3,13,26242
1382997610,5809,327.6799926757812500,10.3478002548217770,34.1352996826171900,178.1977996826172000,480.4359130859375000,10.3858098983764650,37.9238090515136700,50,104,87,80,71,15228,2147733010,2147427849,2148009737,2147871177,2147612900,2147094701,2148227739,2147202587,1604,3,13,55502
1382997709,5804,317.3599853515625000,10.5945997238159180,34.1381988525390600,181.8833007812500000,473.5054931640625000,10.6029100418090820,37.5531311035156250,50,111,87,80,70,15228,2147730258,2147429156,2148015360,2147874121,2147608576,2147104082,2148225453,2147206272,1971,3,13,664
1382997819,5810,306.1400146484375000,10.9050998687744140,34.1445999145507800,185.6381072998047000,463.7087097167969000,10.9092903137207030,37.1367187500000000,49,104,83,80,69,15226,2147729755,2147427611,2148024557,2147873289,2147607661,2147106624,2148231250,2147203428,311,3,13,53262
1382997940,5806,294.4599914550781000,11.1103000640869140,34.1507987976074200,191.2911071777343800,457.5346069335937500,11.1020803451538090,36.6649093627929700,49,105,87,79,69,15229,2147729243,2147431040,2148034596,2147873609,2147608530,2147109028,2148231131,2147205275,3028,3,13,33496
1382998086,5809,283.7500000000000000,11.3107995986938480,34.1600990295410160,191.9535064697265600,450.4115905761719000,11.3242197036743160,36.5053291320800800,49,105,87,79,69,15231,2147725897,2147436553,2148046043,2147872530,2147602523,2147110253,2148237677,2147208036,1779,3,14,62328
1382998282,5809,271.1799926757812500,12.2621002197265620,34.1968994140625000,199.0637054443359400,420.8652954101562500,12.2426795959472660,35.5807685852050800,48,107,85,79,69,15228,2147726774,2147440384,2148062692,2147876068,2147601362,2147113545,2148242304,2147206518,2210,3,13,597
1382998457,5809,260.0000000000000000,12.9460000991821290,34.2582015991210940,209.7124023437500000,398.4743957519531000,12.9358100891113280,34.5939598083496100,49,106,85,78,66,15227,2147722505,2147445193,2148071451,2147876178,2147597485,2147128000,2148242761,2147205686,888,3,13,41757
1382998624,5808,248.3800048828125000,13.7969999313354500,34.3470993041992200,217.6894989013672000,370.5349121093750000,13.7976799011230470,33.7154884338378900,48,106,84,79,66,15226,2147722221,2147459748,2148106166,2147872713,2147594496,2147142848,2148258349,2147208886,3578,3,14,3147
1382998756,5810,237.7799987792968800,14.7003002166748050,34.4255981445312500,216.6994018554687500,341.0849914550781000,14.7030801773071290,33.3285102844238300,48,103,85,80,65,15226,2147723282,2147479131,2148154249,2147874934,2147589814,2147156251,2148274002,2147211355,2366,2,13,6492
1382998897,5808,225.2700042724609400,15.7075996398925780,34.5416984558105500,217.6595001220703000,308.1592102050781000,15.7124395370483400,32.7936210632324200,48,108,86,79,64,15223,2147724937,2147518180,2148238619,2147877787,2147588653,2147192859,2148312128,2147216640,223,3,14,14573
1382999011,5811,213.5200042724609400,16.3791007995605470,34.6183013916015600,215.4972991943359400,286.1307067871094000,16.3864498138427730,32.5934791564941400,50,105,86,80,64,15221,2147726747,2147538752,2148262043,2147871753,2147586340,2147204342,2148322267,2147219629,2488,2,15,49802
1382999121,5807,202.7500000000000000,16.7707004547119140,34.6657981872558600,219.7606048583984400,271.4841003417969000,16.8341903686523440,32.1560592651367200,50,107,84,81,65,15215,2147742500,2147602898,2148396452,2147871588,2147586203,2147245220,2148383478,2147223588,883,3,14,37169
1382999202,5809,195.5000000000000000,17.4542007446289060,34.7406997680664060,220.1345977783203000,251.0509033203125000,17.4584503173828120,31.8493194580078120,53,114,86,80,64,15209,2147747483,2147649133,2148480749,2147872210,2147588132,2147277924,2148421988,2147229586,554,3,14,41740
1382999257,5804,191.0500030517578000,17.6357994079589840,34.7648010253906250,220.4040985107422000,245.3327941894531200,17.6330890655517580,31.7554492950439450,54,107,84,78,64,15209,2147755163,2147674934,2148538880,2147875382,2147593398,2147299108,2148447890,2147229138,393,3,14,21052
1382999312,5802,186.7799987792968800,17.7392997741699220,34.7767982482910160,220.4817962646484400,241.2951965332031200,17.7563991546630860,31.6955299377441400,55,107,82,80,64,15210,2147770642,2147749467,2148685796,2147874304,2147596224,2147340781,2148519579,2147236342,434,2,15,30537
1382999367,5809,182.5800018310547000,18.0853996276855470,34.8138999938964840,218.9519958496093800,229.4264984130859400,18.1188507080078120,31.6119308471679700,55,105,87,79,63,15209,2147802953,2147873956,2148938029,2147873910,2147604434,2147419611,2148643044,2147249426,149,3,14,47821
1382999422,5808,178.5200042724609400,18.3717994689941400,34.8432006835937500,217.1427001953125000,221.0693054199218800,18.3740596771240230,31.5924301147460940,55,106,84,80,63,15209,2147825152,2147940763,2149066276,2147875062,2147612553,2147461001,2148706742,2147249910,3562,2,15,62850
1382999507,5809,172.7799987792968800,18.7980003356933600,34.8816986083984400,210.8746948242187500,206.2176971435547000,18.8276500701904300,31.7263202667236330,55,106,84,79,63,15206,2147863076,2148053686,2149269997,2147876352,2147627190,2147529188,2148800054,2147257298,2960,1,14,4849
1382999573,5808,168.9600067138672000,18.9855003356933600,34.8988990783691400,207.1354980468750000,201.3672027587890600,18.9758090972900400,31.8666801452636720,57,107,86,80,63,15202,2147901677,2148160448,2149453897,2147877394,2147643428,2147587547,2148883081,2147264155,1910,2,14,5442
1382999639,5804,165.0200042724609400,19.0895996093750000,34.9104995727539060,205.4656066894531200,197.8883972167968800,19.0820903778076170,31.9125709533691400,56,109,86,80,63,15201,2147955794,2148288685,2149666038,2147875913,2147662052,2147666166,2148982619,2147270253,1008,2,14,50290
1382999705,5808,161.0099945068359400,19.1641006469726560,34.9196014404296900,204.7749023437500000,195.3724975585937500,19.1589508056640620,31.9168205261230470,57,108,83,81,63,15200,2148035318,2148463195,2149955126,2147877705,2147691465,2147757348,2149116562,2147281718,828,2,15,54623
1382999771,5807,157.1000061035156200,19.3125991821289060,34.9388999938964840,204.5265960693359400,190.0547027587890600,19.3214397430419920,31.8576202392578120,60,108,87,82,62,15197,2148130953,2148658011,2150240786,2147881462,2147727771,2147866925,2149250678,2147297115,686,2,15,1484
1382999857,5805,153.0099945068359400,19.7451992034912100,34.9878997802734400,204.8704071044922000,176.8520050048828000,19.7249908447265620,31.6579704284667970,66,111,87,81,63,15193,2148283200,2148953645,2150696859,2147886546,2147786614,2148038409,2149460160,2147310592,752,2,15,42447
1382999989,5808,149.0599975585937500,19.9804000854492200,35.0219001770019500,207.3683929443359400,168.9163055419922000,19.9676494598388670,31.4107303619384770,70,113,84,80,63,15190,2148181366,2148543149,2149845769,2147883520,2147746011,2147792649,2149042432,2147284553,3100,2,15,22852
1383000110,5814,144.9600067138672000,20.1501998901367200,35.0433998107910160,208.1835021972656200,163.1777038574218800,20.1431903839111330,31.2883090972900400,74,114,87,81,62,15182,2148437357,2149093193,2150739510,2147885979,2147849947,2148089563,2149453741,2147311744,1777,2,15,12569
1383000213,5806,140.4600067138672000,20.2837009429931640,35.0228996276855500,207.7053985595703000,158.2893981933593800,20.2927703857421880,31.2485103607177730,82,116,88,81,63,15176,2148676754,2149400585,2151059958,2147890916,2147933988,2148236370,2149557997,2147326802,1048,2,15,11150
1383000290,5803,136.6600036621093800,20.5107994079589840,35.0294990539550800,205.4226074218750000,150.6266021728515600,20.5273303985595700,31.2722702026367200,92,118,85,81,62,15165,2148916086,2149798061,2151679186,2147896978,2148021440,2148458852,2149892644,2147349769,126,1,16,28983
1383000389,5805,132.9900054931640600,20.8353004455566400,35.0628013610839840,205.3376007080078000,141.3289031982422000,20.8120899200439450,31.1518592834472660,101,123,88,84,61,15153,2148461979,2148748132,2149858843,2147882642,2147842605,2147873636,2149025956,2147289526,3165,1,15,53401
1383000524,5808,129.3300018310547000,20.9016990661621100,35.0680007934570300,206.3497924804687500,138.6069946289062500,20.8955001831054700,31.0594291687011720,106,122,90,84,62,15145,2150116772,2151746139,2154508132,2147925979,2148437522,2149323730,2150994733,2147445184,2097,2,16,48973
1383000689,5809,125.2600021362304700,21.1611995697021500,35.0866012573242200,206.6652069091797000,130.4167022705078000,21.1465606689453120,30.9329490661621100,114,122,89,82,63,15132,2150873380,2152712310,2155712859,2147944539,2148683492,2149693321,2151394624,2147483373,1499,2,15,42012
1383000831,5809,120.9100036621093800,21.7395000457763670,35.1422996520996100,208.5139007568359400,112.5597000122070300,21.6945590972900400,30.5955390930175780,131,124,90,81,62,15110,2152235529,2154518729,2158003876,2147974482,2149137718,2150405696,2152241508,2147562861,1219,2,15,29405
1383000974,5808,117.3000030517578100,21.9867992401123050,35.1805992126464840,214.8650054931640600,103.7854003906250000,21.9641704559326170,30.1429901123046880,134,122,87,82,61,15105,2150172973,2150800896,2152224137,2147918125,2148412681,2148680667,2149857718,2147371126,1030,2,15,29156
1383001160,5807,112.9899978637695300,22.6231994628906250,35.2478981018066400,222.4851074218750000,82.9710998535156200,22.6047592163085940,29.4860191345214840,163,121,91,83,59,15095,2155817188,2158538194,2162126912,2148042230,2150336576,2151794998,2153514998,2147701120,1104,2,15,15103
1383001281,5808,109.1200027465820300,23.1075992584228500,35.3132019042968750,231.1741027832031200,67.3298034667968800,23.0872097015380860,28.8656806945800780,140,120,87,84,59,15096,2159056758,2162302363,2166018596,2148102793,2151571346,2153400896,2155132562,2147862198,644,2,15,57094
1383001423,5809,104.4899978637695300,23.4318008422851560,35.3300018310546900,239.8296966552734400,56.5106697082519500,23.4215106964111330,28.3303794860839840,108,123,89,83,59,15101,2162656969,2166126198,2169574829,2148190336,2153240064,2155352018,2156829001,2148023561,442,1,15,5796
1383001511,5806,101.0299987792968800,23.7145996093750000,35.3367004394531250,242.8878936767578000,47.6697006225585940,23.6950702667236330,28.0834999084472660,96,122,91,84,59,15101,2165187584,2168582418,2171533229,2148252982,2154498816,2156671643,2157763218,2148122898,471,1,15,42886
1383001577,5803,99.3700027465820300,23.8577003479003900,35.3390007019043000,243.9125061035156200,43.1204299926757800,23.8359794616699220,27.9816894531250000,92,122,91,83,58,15097,2168209828,2171912987,2174836041,2148328868,2156018898,2158566262,2159544521,2148289984,262,1,16,31640
1383001719,5805,96.3199996948242200,24.2758007049560550,35.3471984863281250,245.9199066162109400,30.4578800201416000,24.2287101745605470,27.7376003265380860,82,127,92,85,57,15093,2174290870,2178243154,2180623488,2148484498,2159278884,2162307008,2162602660,2148574957,422,2,15,11842
1383001774,5809,94.8399963378906200,24.4330005645751950,35.3521995544433600,246.8110046386718800,25.9434299468994140,24.3689308166503900,27.6433601379394530,81,125,90,84,58,15095,2176666002,2180683309,2182715913,2148542939,2160755428,2163917056,2163815652,2148682578,793,2,15,59524
1383001840,5810,93.2300033569336000,24.7714996337890620,35.3630981445312500,246.8881988525390600,16.6221294403076170,24.6587696075439450,27.5256690979003900,80,124,91,84,57,15089,2178137261,2181982363,2183373979,2148579227,2161991277,2165079332,2164466432,2148749120,1402,2,15,33282
1383001950,5811,91.5800018310546900,24.9388999938964840,35.3727989196777340,247.8762969970703000,8.8926944732666020,24.8994808197021500,27.3886604309082030,76,127,92,86,57,15092,2179489389,2183093321,2184052416,2148634240,2163123574,2166165266,2165183341,2148820937,1967,1,16,61549
1383002057,5806,88.8700027465820300,25.0517997741699220,35.3804016113281250,249.0449981689453000,4.0526118278503420,25.0503807067871100,27.2797698974609380,73,124,89,85,56,15084,2184670272,2187879533,2188159606,2148783542,2166264923,2169366354,2167514166,2149034002,2750,1,16,58295
1383002112,5808,86.6600036621093800,25.3337993621826170,35.3881988525390600,248.7480010986328000,-3.7854020595550537,25.2950401306152340,27.1970405578613280,73,126,89,85,56,15081,2187706176,2190530029,2190228973,2148921618,2168589046,2171681947,2169132827,2149198884,2619,1,16,28698
1383002167,5807,84.7799987792968800,25.5429000854492200,35.3969001770019500,248.4360961914062500,-10.5618495941162110,25.5068607330322270,27.1278495788574220,73,124,90,84,57,15086,2192918445,2196029860,2195758601,2149123931,2171601179,2175057334,2171874916,2149452196,3003,1,16,56306
1383002222,5809,83.4400024414062500,25.8796997070312500,35.4045982360839840,247.0498962402343800,-19.5224990844726560,25.7873897552490230,27.0782508850097660,70,125,91,86,55,15078,2188423442,2190796754,2190300242,2149084068,2169324114,2172071936,2169094893,2149211611,2800,1,16,32277
1383002277,5809,82.4899978637695300,25.9526004791259770,35.4109992980957000,246.4963989257812500,-22.7181091308593750,25.8875598907470700,27.0630702972412100,73,124,90,85,59,15083,2190245156,2192258240,2191113499,2149101129,2171010907,2173811666,2170415369,2149339894,2560,1,16,8448
1383002396,5809,80.0800018310546900,26.2444992065429700,35.4225997924804700,244.0202941894531200,-32.4380111694335940,26.1926498413085940,27.0516796112060550,69,125,90,85,58,15076,2203393856,2206405942,2205461248,2149692690,2178643026,2182430390,2177544219,2150043501,3037,2,16,6092
1383002473,5809,78.4100036621093800,26.3901996612548830,35.4341011047363300,242.5113983154297000,-37.1461105346679700,26.3406505584716800,27.0599308013916000,69,124,91,87,57,15076,2168575652,2167059501,2164852205,2148383232,2159631478,2159374381,2157134518,2148105636,3010,2,16,59369
1383002681,5812,75.9499969482421900,26.4965000152587900,35.4399986267089840,240.9053955078125000,-41.5493316650390600,26.4792098999023440,27.0763092041015620,68,124,92,83,56,15079,2218484653,2220833453,2218187392,2150450093,2190075867,2193847817,2185657572,2150849581,3261,2,16,23085
1383002736,5817,73.9700012207031200,26.6222991943359380,35.4488983154296900,239.8544006347656200,-45.4258003234863300,26.6012992858886720,27.0753803253173830,68,124,91,84,57,15072,2225829961,2227947766,2224723300,2150861696,2195942052,2199552758,2189583332,2151260068,22,1,16,18770
1383002791,5807,72.0199966430664000,26.7437000274658200,35.4565010070800800,238.9954071044922000,-48.8219413757324200,26.7083492279052730,27.0718803405761720,66,125,89,83,57,15078,2230896749,2232504566,2228432201,2151230116,2201196233,2204445403,2192743442,2151576173,436,1,16,51566
1383002846,5808,70.2200012207031200,26.9528007507324220,35.4772987365722660,236.7886047363281200,-55.4729003906250000,26.9182491302490230,27.0887908935546880,67,123,91,85,55,15074,2219365458,2218898496,2213680685,2150742509,2196388690,2198016411,2186750125,2150989732,790,1,16,1975
1383002901,5804,68.9700012207031200,27.0624008178710940,35.4863014221191400,235.3782958984375000,-59.5057411193847660,27.0456695556640620,27.1026096343994140,65,126,90,83,58,15069,2199504822,2197071625,2191555593,2149678253,2184043629,2183499392,2174435190,2149771904,1032,1,16,41118
1383002998,5809,67.2500000000000000,27.2427997589111330,35.4990997314453100,233.3769073486328000,-64.4121093750000000,27.2008590698242200,27.1327209472656250,62,125,89,85,58,15071,2193799990,2190968539,2185974893,2149590080,2181298514,2179954788,2171333147,2149508781,713,1,16,2836
1383003086,5806,65.1999969482421900,27.3229007720947270,35.4994010925293000,232.0417022705078000,-67.7167892456054700,27.3054904937744140,27.1529407501220700,64,123,92,85,55,15072,2248940580,2249611666,2243355236,2153186240,2221551341,2221531830,2202251529,2152729654,1611,1,16,13326
1383003163,5808,62.9700012207031250,27.4151000976562500,35.5014991760253900,230.9571075439453000,-70.9657135009765600,27.4084396362304700,27.1627693176269530,61,121,92,86,55,15072,2256606930,2255992137,2247315638,2153653878,2234255954,2232559579,2209014838,2153382683,2099,1,17,27465
1383003229,5813,60.9599990844726560,27.5662994384765620,35.4795989990234400,230.2660980224609400,-75.6130294799804700,27.5558395385742200,27.1375694274902340,60,123,90,85,56,15064,2262030427,2259329764,2249826395,2154323465,2241752914,2238879341,2212902052,2153743542,2741,0,17,59806
1383003314,5814,58.6899986267089840,27.8232994079589840,35.3782997131347660,228.3569946289062500,-83.4094390869140600,27.8034896850585940,27.1300697326660160,60,125,89,84,56,15061,2272732105,2270299346,2260448768,2155868379,2252944374,2248484754,2218772388,2154495350,2625,0,16,30130
1383003369,5806,57.5099983215332000,27.8376998901367200,35.3282012939453100,226.4116058349609400,-84.5072937011718800,27.8384094238281250,27.2066993713378900,57,123,91,83,55,15071,2272654820,2269069284,2258267821,2155922742,2257637147,2252367058,2220868937,2154610157,2740,1,16,64878
1383003620,5805,54.7599983215332000,27.8539009094238280,35.2685012817382800,222.6755065917968800,-85.2337875366211000,27.8615207672119140,27.3732109069824220,54,120,89,85,57,15084,2282511652,2279499940,2270241225,2158357942,2266761901,2259399716,2224914102,2155535963,3368,1,16,57793
1383003675,5808,52.6800003051757800,27.8547992706298830,35.2500000000000000,222.1808013916015600,-84.9341201782226600,27.8519802093505860,27.4004096984863280,55,117,89,84,55,15081,2194996242,2187849526,2180235209,2150302034,2194165421,2185543222,2170899072,2149603885,3433,0,16,18116
1383003730,5808,50.4900016784668000,27.8528995513916000,35.2440986633300800,221.7987976074218800,-84.9249572753906200,27.8516902923584000,27.4185905456542970,54,119,91,83,54,15083,2267161435,2264362825,2256725266,2159128594,2253810715,2243195382,2211278692,2154536694,2847,0,17,23072
1383003785,5808,48.2099990844726560,27.8586006164550780,35.2448005676269500,221.6349029541015600,-85.0956115722656200,27.8571205139160160,27.4242897033691400,54,119,89,84,54,15078,2226468388,2219262546,2209591241,2153827136,2231689572,2218691565,2191978212,2151987090,2601,0,17,14165
1383003840,5806,45.8199996948242200,27.8600006103515620,35.2434997558593750,221.6638031005859400,-85.3133468627929700,27.8640499114990230,27.4202404022216800,54,117,85,83,55,15081,2322127853,2320957888,2311707620,2168457810,2336011236,2319269211,2262025984,2160457645,2439,1,16,9899
1383003926,5805,41.2099990844726560,27.8605995178222660,35.2421989440918000,221.7565002441406200,-85.2311172485351600,27.8614292144775400,27.4168605804443360,54,119,90,84,54,15076,2344165714,2343949531,2335531730,2176851629,2371634322,2349334354,2280465097,2163708809,2321,1,17,7804
1383003981,5812,37.5200004577636700,27.8595008850097660,35.2393989562988300,221.7967071533203000,-85.1890411376953100,27.8600902557373050,27.4155006408691400,53,118,89,84,56,15074,2227309741,2217465353,2206726966,2156633408,2251696356,2231032832,2196987300,2152992018,2222,1,17,62853
1383004036,5810,33.7599983215332000,27.8602008819580080,35.2383003234863300,221.8715972900390600,-85.1581573486328100,27.8591098785400400,27.4122905731201170,54,119,91,84,57,15075,2314456192,2309192722,2300177170,2179621430,2367821961,2339000018,2269562331,2163518198,2319,1,16,29694
1383004091,5810,30.0400009155273440,27.8603000640869140,35.2355003356933600,221.9250946044922000,-85.2261199951171900,27.8612709045410160,27.4089603424072270,53,117,92,81,51,15081,2401438354,2402619126,2397659702,2210389074,2475747867,2437855689,2336181302,2175544576,2182,0,16,1093